Time,TemperatureF,DewpointF,PressureIn,WindDirection,WindDirectionDegrees,WindSpeedMPH,WindSpeedGustMPH,Humidity,HourlyPrecipIn,Conditions,Clouds,dailyrainin,SoftwareType,DateUTC
2013-07-31 00:02:00,66.0,64.0,30.07,ESE,109,1.0,3.0,92,0.00,,,0.11,,2013-07-31 04:02:00,
2013-07-31 00:12:00,66.0,64.0,30.07,ESE,109,1.0,3.0,92,0.00,,,0.11,,2013-07-31 04:12:00,
2013-07-31 00:22:00,66.0,64.0,30.07,ESE,109,1.0,3.0,92,0.00,,,0.11,,2013-07-31 04:22:00,
2013-07-31 00:32:00,66.0,64.0,30.07,ESE,109,1.0,3.0,92,0.00,,,0.11,,2013-07-31 04:32:00,
2013-07-31 00:42:00,66.0,64.0,30.07,ESE,109,1.0,3.0,92,0.00,,,0.11,,2013-07-31 04:42:00,
2013-07-31 01:12:00,65.0,64.0,30.07,ESE,109,0.0,3.0,95,0.01,,,0.12,,2013-07-31 05:12:00,
2013-07-31 01:22:00,65.0,64.0,30.06,SE,136,0.0,4.0,95,0.01,,,0.12,,2013-07-31 05:22:00,
2013-07-31 01:32:00,65.0,64.0,30.06,SSE,165,0.0,4.0,95,0.00,,,0.12,,2013-07-31 05:32:00,
2013-07-31 01:42:00,65.0,64.0,30.06,SSE,165,0.0,4.0,95,0.00,,,0.12,,2013-07-31 05:42:00,
2013-07-31 01:52:00,65.0,64.0,30.06,ESE,115,0.0,4.0,95,0.00,,,0.12,,2013-07-31 05:52:00,
2013-07-31 02:02:00,65.0,64.0,30.06,SE,126,0.0,3.0,96,0.00,,,0.12,,2013-07-31 06:02:00,
2013-07-31 02:12:00,65.0,64.0,30.06,SE,126,0.0,3.0,96,0.00,,,0.12,,2013-07-31 06:12:00,
2013-07-31 02:22:00,65.0,64.0,30.05,SE,130,0.0,3.0,96,0.01,,,0.13,,2013-07-31 06:22:00,
2013-07-31 02:32:00,65.0,64.0,30.05,SE,143,0.0,3.0,96,0.02,,,0.14,,2013-07-31 06:32:00,
2013-07-31 02:43:00,65.0,64.0,30.05,SE,143,0.0,3.0,96,0.02,,,0.14,,2013-07-31 06:43:00,
2013-07-31 02:53:00,65.0,64.0,30.04,ESE,116,0.0,3.0,96,0.04,,,0.16,,2013-07-31 06:53:00,
2013-07-31 03:02:00,65.0,64.0,30.04,ESE,107,0.0,3.0,96,0.04,,,0.16,,2013-07-31 07:02:00,
2013-07-31 03:12:00,65.0,64.0,30.04,ESE,107,0.0,3.0,96,0.04,,,0.16,,2013-07-31 07:12:00,
2013-07-31 03:22:00,65.0,64.0,30.04,SSE,155,0.0,4.0,96,0.03,,,0.16,,2013-07-31 07:22:00,
2013-07-31 03:32:00,65.0,64.0,30.03,SSE,166,0.0,3.0,96,0.02,,,0.16,,2013-07-31 07:32:00,
2013-07-31 03:43:00,65.0,64.0,30.03,SSE,166,0.0,3.0,96,0.02,,,0.16,,2013-07-31 07:43:00,
2013-07-31 03:52:00,65.0,64.0,30.03,South,180,0.0,3.0,96,0.01,,,0.17,,2013-07-31 07:52:00,
2013-07-31 04:02:00,65.0,64.0,30.03,SSE,163,0.0,3.0,96,0.01,,,0.17,,2013-07-31 08:02:00,
2013-07-31 04:12:00,65.0,64.0,30.03,SSE,163,0.0,3.0,96,0.01,,,0.17,,2013-07-31 08:12:00,
2013-07-31 04:22:00,65.0,64.0,30.03,South,182,0.0,3.0,96,0.01,,,0.17,,2013-07-31 08:22:00,
2013-07-31 04:32:00,65.0,64.0,30.03,SSE,156,1.0,3.0,96,0.01,,,0.17,,2013-07-31 08:32:00,
2013-07-31 04:42:00,65.0,64.0,30.03,SSE,156,1.0,3.0,96,0.01,,,0.17,,2013-07-31 08:42:00,
2013-07-31 04:53:00,65.0,64.0,30.03,South,169,1.0,5.0,97,0.00,,,0.17,,2013-07-31 08:53:00,
2013-07-31 05:02:00,65.0,64.0,30.02,South,173,0.0,4.0,97,0.00,,,0.17,,2013-07-31 09:02:00,
2013-07-31 05:12:00,65.0,64.0,30.02,South,173,0.0,4.0,97,0.00,,,0.17,,2013-07-31 09:12:00,
2013-07-31 05:22:00,65.0,64.0,30.02,South,190,1.0,4.0,97,0.00,,,0.17,,2013-07-31 09:22:00,
2013-07-31 05:32:00,65.0,64.0,30.02,South,189,1.0,3.0,97,0.00,,,0.17,,2013-07-31 09:32:00,
2013-07-31 05:43:00,65.0,64.0,30.02,South,189,1.0,3.0,97,0.00,,,0.17,,2013-07-31 09:43:00,
2013-07-31 05:52:00,65.0,64.0,30.02,South,187,0.0,3.0,97,0.00,,,0.17,,2013-07-31 09:52:00,
2013-07-31 06:02:00,65.0,64.0,30.02,South,190,2.0,6.0,97,0.00,,,0.17,,2013-07-31 10:02:00,
2013-07-31 06:12:00,65.0,64.0,30.02,South,190,2.0,6.0,97,0.00,,,0.17,,2013-07-31 10:12:00,
2013-07-31 06:22:00,65.0,64.0,30.02,SSE,164,0.0,5.0,97,0.00,,,0.17,,2013-07-31 10:22:00,
2013-07-31 06:32:00,65.0,64.0,30.02,SSE,150,0.0,4.0,97,0.00,,,0.17,,2013-07-31 10:32:00,
2013-07-31 06:44:00,65.0,64.0,30.02,SSE,150,0.0,4.0,97,0.00,,,0.17,,2013-07-31 10:44:00,
2013-07-31 06:52:00,65.0,64.0,30.01,South,178,0.0,4.0,97,0.00,,,0.17,,2013-07-31 10:52:00,
2013-07-31 07:03:00,65.0,64.0,30.02,SSE,168,0.0,2.0,97,0.00,,,0.17,,2013-07-31 11:03:00,
2013-07-31 07:12:00,65.0,64.0,30.02,SSE,168,0.0,2.0,97,0.00,,,0.17,,2013-07-31 11:12:00,
2013-07-31 07:22:00,65.0,64.0,30.02,South,180,0.0,3.0,97,0.01,,,0.18,,2013-07-31 11:22:00,
2013-07-31 07:33:00,65.0,64.0,30.02,South,191,0.0,3.0,97,0.01,,,0.18,,2013-07-31 11:33:00,
2013-07-31 07:43:00,65.0,64.0,30.02,South,191,0.0,3.0,97,0.01,,,0.18,,2013-07-31 11:43:00,
2013-07-31 07:53:00,65.0,64.0,30.02,South,177,0.0,2.0,97,0.01,,,0.18,,2013-07-31 11:53:00,
2013-07-31 08:02:00,65.0,64.0,30.02,SW,217,0.0,3.0,97,0.01,,,0.18,,2013-07-31 12:02:00,
2013-07-31 08:12:00,65.0,64.0,30.02,SW,217,0.0,3.0,97,0.01,,,0.18,,2013-07-31 12:12:00,
2013-07-31 08:22:00,65.0,64.0,30.02,South,173,1.0,3.0,97,0.00,,,0.18,,2013-07-31 12:22:00,
2013-07-31 08:33:00,65.0,64.0,30.02,SW,216,0.0,2.0,97,0.00,,,0.18,,2013-07-31 12:33:00,
2013-07-31 08:43:00,65.0,64.0,30.02,SW,216,0.0,2.0,97,0.00,,,0.18,,2013-07-31 12:43:00,
2013-07-31 08:53:00,65.0,64.0,30.02,SSE,166,0.0,3.0,97,0.00,,,0.18,,2013-07-31 12:53:00,
2013-07-31 09:02:00,65.0,64.0,30.02,South,173,0.0,3.0,97,0.00,,,0.18,,2013-07-31 13:02:00,
2013-07-31 09:12:00,65.0,64.0,30.02,South,173,0.0,3.0,97,0.00,,,0.18,,2013-07-31 13:12:00,
2013-07-31 09:22:00,65.0,64.0,30.02,SW,230,0.0,1.0,98,0.01,,,0.19,,2013-07-31 13:22:00,
2013-07-31 09:43:00,66.0,65.0,30.02,SSE,148,0.0,2.0,98,0.02,,,0.20,,2013-07-31 13:43:00,
2013-07-31 09:53:00,66.0,65.0,30.02,SSE,161,0.0,2.0,97,0.03,,,0.21,,2013-07-31 13:53:00,
2013-07-31 10:02:00,66.0,65.0,30.02,South,170,0.0,4.0,97,0.03,,,0.21,,2013-07-31 14:02:00,
2013-07-31 10:12:00,66.0,65.0,30.02,South,170,0.0,4.0,97,0.03,,,0.21,,2013-07-31 14:12:00,
2013-07-31 10:22:00,66.0,65.0,30.02,SSE,150,1.0,3.0,98,0.02,,,0.21,,2013-07-31 14:22:00,
2013-07-31 10:34:00,66.0,65.0,30.01,SSW,199,0.0,2.0,98,0.01,,,0.21,,2013-07-31 14:34:00,
2013-07-31 10:43:00,66.0,65.0,30.01,SSW,199,0.0,2.0,98,0.01,,,0.21,,2013-07-31 14:43:00,
2013-07-31 10:53:00,67.0,66.0,30.01,SSW,201,0.0,1.0,98,0.00,,,0.21,,2013-07-31 14:53:00,
2013-07-31 11:02:00,67.0,66.0,30.01,South,190,0.0,3.0,98,0.00,,,0.21,,2013-07-31 15:02:00,
2013-07-31 11:12:00,67.0,66.0,30.01,South,190,0.0,3.0,98,0.00,,,0.21,,2013-07-31 15:12:00,
2013-07-31 11:22:00,67.0,66.0,30.01,SSE,165,0.0,4.0,98,0.00,,,0.21,,2013-07-31 15:22:00,
2013-07-31 11:33:00,68.0,67.0,30.01,SSW,209,0.0,3.0,98,0.00,,,0.21,,2013-07-31 15:33:00,
2013-07-31 11:43:00,68.0,67.0,30.01,SSW,209,0.0,3.0,98,0.00,,,0.21,,2013-07-31 15:43:00,
2013-07-31 11:53:00,68.0,67.0,30.01,SSW,205,0.0,3.0,98,0.00,,,0.21,,2013-07-31 15:53:00,
2013-07-31 12:02:00,69.0,68.0,30.01,SSW,200,0.0,3.0,98,0.00,,,0.21,,2013-07-31 16:02:00,
2013-07-31 12:12:00,69.0,68.0,30.01,SSW,200,0.0,3.0,98,0.00,,,0.21,,2013-07-31 16:12:00,
2013-07-31 12:22:00,69.0,68.0,30.01,SW,223,0.0,3.0,98,0.00,,,0.21,,2013-07-31 16:22:00,
2013-07-31 12:33:00,69.0,68.0,30.00,WSW,246,1.0,5.0,98,0.00,,,0.21,,2013-07-31 16:33:00,
2013-07-31 12:44:00,69.0,68.0,30.00,WSW,246,1.0,5.0,98,0.00,,,0.21,,2013-07-31 16:44:00,
2013-07-31 12:52:00,69.0,68.0,30.00,West,269,2.0,5.0,97,0.00,,,0.21,,2013-07-31 16:52:00,
2013-07-31 13:02:00,69.0,68.0,30.00,WNW,298,1.0,4.0,96,0.00,,,0.21,,2013-07-31 17:02:00,
2013-07-31 13:13:00,69.0,68.0,30.00,WNW,298,1.0,4.0,96,0.00,,,0.21,,2013-07-31 17:13:00,
2013-07-31 13:22:00,70.0,68.0,30.00,WSW,240,0.0,5.0,95,0.00,,,0.21,,2013-07-31 17:22:00,
2013-07-31 13:33:00,70.0,68.0,30.00,West,261,2.0,5.0,94,0.00,,,0.21,,2013-07-31 17:33:00,
2013-07-31 13:43:00,70.0,68.0,30.00,West,261,2.0,5.0,94,0.00,,,0.21,,2013-07-31 17:43:00,
2013-07-31 13:53:00,71.0,69.0,30.00,NW,309,3.0,7.0,93,0.00,,,0.21,,2013-07-31 17:53:00,
2013-07-31 14:02:00,71.0,69.0,29.99,WNW,282,4.0,7.0,92,0.00,,,0.21,,2013-07-31 18:02:00,
2013-07-31 14:12:00,71.0,69.0,29.99,WNW,282,4.0,7.0,92,0.00,,,0.21,,2013-07-31 18:12:00,
2013-07-31 14:22:00,71.0,69.0,29.99,WNW,292,3.0,7.0,93,0.00,,,0.21,,2013-07-31 18:22:00,
2013-07-31 14:32:00,70.0,68.0,29.98,WNW,289,3.0,7.0,95,0.00,,,0.21,,2013-07-31 18:32:00,
2013-07-31 14:43:00,70.0,68.0,29.98,WNW,289,3.0,7.0,95,0.00,,,0.21,,2013-07-31 18:43:00,
2013-07-31 14:52:00,70.0,68.0,29.98,NW,315,3.0,7.0,95,0.00,,,0.21,,2013-07-31 18:52:00,
2013-07-31 15:03:00,70.0,68.0,29.98,WNW,298,4.0,7.0,94,0.00,,,0.21,,2013-07-31 19:03:00,
2013-07-31 15:12:00,70.0,68.0,29.98,WNW,298,4.0,7.0,94,0.00,,,0.21,,2013-07-31 19:12:00,
2013-07-31 15:22:00,70.0,68.0,29.98,NW,321,2.0,7.0,93,0.00,,,0.21,,2013-07-31 19:22:00,
2013-07-31 15:33:00,71.0,69.0,29.98,West,261,1.0,4.0,93,0.00,,,0.19,,2013-07-31 19:33:00,
2013-07-31 15:43:00,71.0,69.0,29.98,West,261,1.0,4.0,93,0.00,,,0.19,,2013-07-31 19:43:00,
2013-07-31 15:53:00,71.0,69.0,29.98,WNW,286,3.0,6.0,92,0.00,,,0.19,,2013-07-31 19:53:00,
2013-07-31 16:03:00,72.0,70.0,29.98,WSW,258,0.0,5.0,93,0.00,,,0.19,,2013-07-31 20:03:00,
2013-07-31 16:12:00,72.0,70.0,29.98,WSW,258,0.0,5.0,93,0.00,,,0.19,,2013-07-31 20:12:00,
2013-07-31 16:22:00,73.0,70.0,29.98,West,259,2.0,6.0,90,0.00,,,0.19,,2013-07-31 20:22:00,
2013-07-31 16:32:00,73.0,70.0,29.97,WNW,292,4.0,7.0,89,0.00,,,0.15,,2013-07-31 20:32:00,
2013-07-31 16:43:00,73.0,70.0,29.97,WNW,292,4.0,7.0,89,0.00,,,0.15,,2013-07-31 20:43:00,
2013-07-31 16:53:00,74.0,70.0,29.97,WNW,298,3.0,9.0,88,0.00,,,0.15,,2013-07-31 20:53:00,
2013-07-31 17:02:00,73.0,69.0,29.97,WNW,282,6.0,8.0,87,0.00,,,0.15,,2013-07-31 21:02:00,
2013-07-31 17:13:00,73.0,69.0,29.97,WNW,282,6.0,8.0,87,0.00,,,0.15,,2013-07-31 21:13:00,
2013-07-31 17:22:00,75.0,70.0,29.96,WNW,286,5.0,8.0,85,0.00,,,0.15,,2013-07-31 21:22:00,
2013-07-31 17:32:00,75.0,70.0,29.96,West,269,4.0,9.0,85,0.00,,,0.10,,2013-07-31 21:32:00,
2013-07-31 17:43:00,75.0,70.0,29.96,West,269,4.0,9.0,85,0.00,,,0.10,,2013-07-31 21:43:00,
2013-07-31 17:53:00,75.0,70.0,29.96,WNW,298,4.0,11.0,84,0.00,,,0.10,,2013-07-31 21:53:00,
2013-07-31 18:02:00,75.0,69.0,29.96,WNW,292,6.0,9.0,82,0.00,,,0.10,,2013-07-31 22:02:00,
2013-07-31 18:12:00,75.0,69.0,29.96,WNW,292,6.0,9.0,82,0.00,,,0.10,,2013-07-31 22:12:00,
2013-07-31 18:22:00,74.0,69.0,29.95,NW,306,3.0,8.0,84,0.00,,,0.10,,2013-07-31 22:22:00,
2013-07-31 18:33:00,75.0,70.0,29.95,NNW,329,4.0,8.0,84,0.00,,,0.10,,2013-07-31 22:33:00,
2013-07-31 18:43:00,75.0,70.0,29.95,NNW,329,4.0,8.0,84,0.00,,,0.10,,2013-07-31 22:43:00,
2013-07-31 18:53:00,75.0,69.0,29.95,NW,305,5.0,10.0,81,0.00,,,0.10,,2013-07-31 22:53:00,
2013-07-31 19:02:00,75.0,69.0,29.95,NW,305,5.0,10.0,81,0.00,,,0.10,,2013-07-31 23:02:00,
2013-07-31 19:12:00,75.0,69.0,29.95,WNW,292,3.0,7.0,81,0.00,,,0.10,,2013-07-31 23:12:00,
2013-07-31 19:22:00,75.0,69.0,29.94,WNW,291,4.0,8.0,82,0.00,,,0.10,,2013-07-31 23:22:00,
2013-07-31 19:32:00,74.0,69.0,29.94,NNW,334,3.0,8.0,84,0.00,,,0.10,,2013-07-31 23:32:00,
2013-07-31 19:42:00,74.0,69.0,29.94,NNW,334,3.0,8.0,84,0.00,,,0.10,,2013-07-31 23:42:00,
2013-07-31 19:52:00,73.0,68.0,29.95,NNW,333,5.0,13.0,83,0.00,,,0.10,,2013-07-31 23:52:00,
2013-07-31 20:02:00,73.0,68.0,29.95,NNW,337,5.0,10.0,83,0.00,,,0.10,,2013-08-01 00:02:00,
2013-07-31 20:12:00,73.0,68.0,29.95,NNW,337,5.0,10.0,83,0.00,,,0.10,,2013-08-01 00:12:00,
2013-07-31 20:22:00,72.0,66.0,29.94,NW,315,5.0,10.0,82,0.00,,,0.10,,2013-08-01 00:22:00,
2013-07-31 20:32:00,72.0,67.0,29.94,NNW,345,3.0,6.0,83,0.00,,,0.10,,2013-08-01 00:32:00,
2013-07-31 20:43:00,72.0,67.0,29.94,NNW,345,3.0,6.0,83,0.00,,,0.10,,2013-08-01 00:43:00,
2013-07-31 20:52:00,71.0,66.0,29.94,NW,326,4.0,7.0,83,0.00,,,0.10,,2013-08-01 00:52:00,
2013-07-31 21:02:00,71.0,66.0,29.95,NW,316,2.0,5.0,85,0.00,,,0.10,,2013-08-01 01:02:00,
2013-07-31 21:12:00,71.0,66.0,29.95,NW,316,2.0,5.0,85,0.00,,,0.10,,2013-08-01 01:12:00,
2013-07-31 21:22:00,70.0,66.0,29.96,NW,315,3.0,6.0,87,0.00,,,0.10,,2013-08-01 01:22:00,
2013-07-31 21:33:00,69.0,65.0,29.96,NW,322,3.0,7.0,88,0.00,,,0.10,,2013-08-01 01:33:00,
2013-07-31 21:43:00,69.0,65.0,29.96,NW,322,3.0,7.0,88,0.00,,,0.10,,2013-08-01 01:43:00,
2013-07-31 21:53:00,68.0,65.0,29.96,NW,316,0.0,4.0,89,0.00,,,0.10,,2013-08-01 01:53:00,
2013-07-31 22:02:00,67.0,64.0,29.96,NW,326,0.0,3.0,91,0.00,,,0.10,,2013-08-01 02:02:00,
2013-07-31 22:12:00,67.0,64.0,29.96,NW,326,0.0,3.0,91,0.00,,,0.10,,2013-08-01 02:12:00,
2013-07-31 22:22:00,67.0,65.0,29.96,NW,321,0.0,3.0,92,0.00,,,0.10,,2013-08-01 02:22:00,
2013-07-31 22:32:00,66.0,64.0,29.96,NW,321,0.0,2.0,92,0.00,,,0.10,,2013-08-01 02:32:00,
2013-07-31 22:43:00,66.0,64.0,29.96,NW,321,0.0,2.0,92,0.00,,,0.10,,2013-08-01 02:43:00,
2013-07-31 22:53:00,66.0,64.0,29.97,NW,321,0.0,1.0,93,0.00,,,0.10,,2013-08-01 02:53:00,
2013-07-31 23:02:00,65.0,63.0,29.98,NW,321,0.0,2.0,93,0.00,,,0.10,,2013-08-01 03:02:00,
2013-07-31 23:12:00,65.0,63.0,29.98,NW,321,0.0,2.0,93,0.00,,,0.10,,2013-08-01 03:12:00,
2013-07-31 23:22:00,64.0,62.0,29.98,NW,321,0.0,1.0,94,0.00,,,0.10,,2013-08-01 03:22:00,
2013-07-31 23:32:00,64.0,62.0,29.98,NW,321,0.0,1.0,94,0.00,,,0.10,,2013-08-01 03:32:00,
2013-07-31 23:43:00,64.0,62.0,29.98,NW,321,0.0,1.0,94,0.00,,,0.10,,2013-08-01 03:43:00,
2013-07-31 23:53:00,63.0,62.0,29.98,NW,321,0.0,0.0,95,0.00,,,0.10,,2013-08-01 03:53:00,